SCP
0 0 0 0 0 0 0 0 0 0 0 0 0 0 0 -0 0 0 0 0 0 0 0 0 0 0 0 0 0 0 0 0 0 0 0 0 0 0 0 0 0 0 0 0 0 0 0 0 0
0 0 0 0 0 0 0 0 0 0 -0 -0 -0 -0 -0 0 0 0 0 0 0 0 0 0 0 0 0 0 0 0 0 0 0 0 0 0 0 0 0 0 0 0 0 0 0 0 0 0 0
0 0 0 0 0 0 0 0 0 0 -0 0 -0 0 0 0 0 0 0 0 0 0 0 0 0 0 0 0 0 0 0 0 0 0 0 0 0 0 0 0 0 0 0 0 0 0 0 0 0
0 0 0 0 0 0 0 0 0 -0 -0 0 0 0 0 0 0 0 0 0 0 0 0 0 0 0 0 0 0 0 0 0 0 0 0 0 0 0 0 0 0 0 0 0 0 0 0 0 0
0 0 0 0 0 0 0 0 0 -0 0 0 0 0 0 0 0 0 0 0 0 0 0 0 0 0 0 0 0 0 0 0 0 0 0 0 0 0 0 0 0 0 0 0 0 0 0 0 0
0 0 0 -0 0 0 0 0 0 0 0 0 0 0 0 0 0 0 0 0 0 0 0 0 0 0 0 0 0 0 0 0 0 0 0 0 0 0 0 0 0 0 0 0 0 0 0 0 0
0 0 0 0 0 0 0 0 0 0 0 0 0 0 0 0 0 0 0 0 0 0 0 0 0 0 0 0 0 0 0 0 0 0 0 0 0 0 0 0 0 0 0 0 0 0 0 0 0
0 0 0 0 0 -0 0 0 0 0 0 0 0 0 0 0 -0 0 0 0 0 0 0 0 0 0 0 0 0 0 0 0 0 0 0 0 0 0 0 0 0 0 0 0 0 0 0 0 0
0 0 0 0 0 0 0 0 0 0 0 0 0 0 0 0 0 0 0 0 0 0 0 0 0 0 0 0 0 0 0 0 0 0 0 0 0 0 0 0 0 0 0 0 0 0 0 0 0
0 0 -0 0 0 0 0 0 0 0 0 0 0 -0 0 0 0 0 0 0 0 0 0 0 0 0 0 0 0 0 0 0 0 0 0 0 0 0 0 0 0 0 0 0 0 0 0 0 0
0 0 0 0 0 0 0 0 0 0 0 -0 -0 0 0 0 0 0 0 0 0 0 0 0 0 0 0 0 0 0 0 0 0 0 0 0 0 0 0 0 0 0 0 0 0 0 0 0 0
0 0 0 -0 0 0 0 0 0 -0 -0 0 0 0 0 0 0 0 0 0 0 0 0 0 0 0 0 0 0 0 0 0 0 0 0 0 0 0 0 0 0 0 0 0 0 0 0 0 0
0 -0 0 0 0 0 0 0 -0 -0 -0 0 0 0 0 0 0 0 0 0 0 0 0 0 0 0 0 0 0 0 0 0 0 0 0 0 0 0 0 0 0 0 0 0 0 0 0 0 0
0 0 -0 0 0 0 0 -0 0 0 0 0 0 0 0 0 0 0 0 0 0 0 0 0 0 0 0 0 0 0 0 0 0 0 0 0 0 0 0 0 0 0 0 0 0 0 0 0 0
0 -0 -0 0 0 -0 0 -0 -0 0 0 0 0 0 0 0 0 0 0 0 0 0 0 0 0 0 0 0 0 0 0 0 0 0 0 0 0 0 0 0 0 0 0 0 0 0 0 0 0
-0 -0 -0 -0 -0 0 -0 -0 -0 0 0 0 -0 0 0 0 0 0 0 0 0 0 0 0 0 0 0 0 0 0 0 0 0 0 0 0 0 0 0 0 0 0 0 0 0 0 0 0 0
-0 0 0 -0 -0 -0 -0 -0 0 0 -0 -0 0 0 0 0 0 0 0 0 0 0 0 0 0 0 0 0 0 0 0 0 0 0 0 0 0 0 0 0 0 0 0 0 0 0 0 0 0
0 -0 -0 -0 -0 -0 0 -0 0 0 0 0 0 0 -0 0 0 0 0 0 0 0 0 0 0 0 0 0 0 0 0 0 0 0 0 0 0 0 0 0 0 0 0 0 0 0 0 0 0
0 0 -0 0 -0 -0 -0 0 0 0 0 0 0 0 0 0 0 0 0 0 0 0 0 0 0 0 0 0 0 0 0 0 0 0 0 0 0 0 0 0 0 0 0 0 0 0 0 0 0
-0 -0 -0 0 -0 -0 -0 -0 0 0 0 0 0 0 0 0 0 0 0 0 0 0 0 0 0 0 0 0 0 0 0 0 0 0 0 0 0 0 0 0 0 0 0 0 0 0 0 0 0
-0 -0 -0 0 0 0 -0 0 0 0 0 0 0 0 0 0 0 0 0 0 0 0 0 0 0 0 0 0 0 0 0 0 0 0 0 0 0 0 0 0 0 0 0 0 0 0 0 0 0
-0 -0 -0 -0 -0 0 0 0 0 -0 0 0 0 0 0 0 0 0 0 0 0 0 0 0 0 0 0 0 0 0 0 0 0 0 0 0 0 0 0 0 0 0 0 0 0 0 0 0 0
-0 0 0 0 0 0 0 0 0 0 0 0 0 0 0 0 0 0 0 0 0 0 0 0 0 0 0 0 0 0 0 0 0 0 0 0 0 0 0 0 0 0 0 0 0 0 0 0 0
0 0 0 0 0 0 0 0 0 0 0 0 0 0 0 0 0 0 0 0 0 0 0 0 0 0 0 0 0 0 0 0 0 0 0 0 0 0 0 0 0 0 0 0 0 0 0 0 0
0 0 -0 0 0 0 0 0 0 0 0 0 0 0 0 0 0 0 0 0 0 0 0 0 0 0 0 0 0 0 0 0 0 0 0 0 0 0 0 0 0 0 0 0 0 0 0 0 0
0 0 0 0 0 0 0 0 0 0 0 0 0 0 0 0 0 0 0 0 0 0 0 0 0 0 0 0 0 0 0 0 0 0 0 0 0 0 0 0 0 0 0 0 0 0 0 0 0
0 0 0 0 0 0 0 0 0 0 0 0 0 0 0 0 0 0 0 0 0 0 0 0 0 0 0 0 0 0 0 0 0 0 0 0 0 0 0 0 0 0 0 0 0 0 0 0 0
0 0 0 0 0 0 0 0 0 0 0 0 0 0 0 0 0 0 0 0 0 0 0 0 0 0 0 0 0 0 0 0 0 0 0 0 0 0 0 0 0 0 0 0 0 0 0 0 0
0 0 0 0 0 0 0 0 0 0 0 0 0 0 0 0 0 0 0 0 0 0 0 0 0 0 0 0 0 0 0 0 0 0 0 0 0 0 0 0 0 0 0 0 0 0 0 0 0
0 0 0 0 0 0 0 0 0 0 0 0 0 0 0 0 0 0 0 0 0 0 0 0 0 0 0 0 0 0 0 0 0 0 0 0 0 0 0 0 0 0 0 0 0 0 0 0 0
Wind_Speed_500mb
11 7 4 3 8 9 3 3 2 4 4 2 3 2 3 9 1 4 14 21 18 14 6 10 9 15 16 23 28 29 30 33 35 37 39 40 41 42 42 44 44 41 37 30 26 26 26 27 28
9 3 8 5 9 6 5 6 6 6 6 15 7 5 6 3 2 2 17 23 19 12 6 13 13 20 26 27 33 35 38 40 41 43 42 42 42 40 40 39 39 36 33 29 28 28 26 27 28
2 4 4 8 6 8 7 6 8 2 22 3 1 5 3 4 6 7 16 21 18 15 14 14 20 25 29 33 35 39 43 43 42 40 40 39 38 38 37 31 28 35 31 29 29 30 29 30 30
2 5 12 8 5 2 5 6 5 9 9 6 3 5 1 6 8 14 16 19 21 19 16 18 24 27 32 36 40 43 40 38 37 38 37 37 36 34 30 39 38 30 28 27 28 25 25 21 19
3 7 8 8 1 3 5 4 9 5 5 4 2 4 6 10 11 14 20 22 25 22 21 23 28 32 36 39 40 38 36 35 37 35 36 37 38 40 40 39 37 38 38 36 37 37 40 43 41
4 5 8 4 4 5 7 5 3 2 4 2 3 3 7 12 18 17 26 29 31 28 25 24 27 32 37 39 40 36 36 36 38 40 42 43 42 40 39 37 37 38 36 36 35 36 39 40 43
10 7 4 5 4 4 5 2 2 4 3 6 4 3 9 17 19 22 29 33 34 33 28 26 30 35 35 39 37 36 38 41 44 46 45 43 40 38 37 35 35 36 36 38 39 42 45 47 50
7 9 5 3 7 6 4 2 2 3 6 6 7 11 12 12 19 25 33 32 36 35 31 30 33 35 37 39 39 41 41 43 43 43 42 40 38 37 36 36 38 39 42 44 46 49 52 55 57
4 9 4 6 8 5 8 1 2 5 9 15 18 28 27 22 22 33 37 39 40 37 33 32 33 35 40 41 39 39 40 41 41 40 39 37 37 37 38 39 42 45 48 51 53 57 60 62 64
10 7 7 3 1 5 6 4 5 5 12 18 34 42 39 32 31 37 41 38 37 34 33 34 36 37 41 41 40 38 39 39 39 40 40 40 41 42 44 46 48 50 53 55 58 61 65 67 71
7 5 3 3 5 5 8 9 9 9 13 41 31 30 33 35 35 38 41 40 35 35 37 37 38 41 43 42 40 39 39 38 39 41 43 44 45 47 49 52 54 57 61 63 66 68 70 73 75
8 2 2 4 4 6 8 11 12 28 48 21 22 28 32 36 39 40 39 37 38 37 37 38 39 44 43 40 41 40 39 39 41 43 46 48 50 53 56 58 59 62 65 69 72 75 79 81 82
6 3 1 6 8 14 20 22 21 51 58 47 42 38 38 37 39 40 35 37 39 39 38 39 42 44 42 43 42 41 40 40 41 44 47 51 55 59 61 62 64 67 70 74 79 81 83 83 82
4 2 5 6 7 14 10 12 6 17 11 14 33 46 42 41 39 38 38 37 34 33 37 38 41 41 43 42 41 40 40 40 43 47 50 52 55 58 61 64 67 70 74 77 79 80 81 81 81
2 5 9 2 10 8 19 15 19 40 30 24 27 34 34 36 38 43 35 33 30 31 34 37 38 41 41 40 39 39 39 41 44 47 50 52 56 58 62 66 68 71 73 75 76 77 79 82 83
10 9 10 4 20 6 12 21 7 4 10 28 37 33 36 35 41 39 34 32 33 34 35 37 37 38 39 38 38 37 38 42 45 49 51 54 56 60 63 66 69 69 71 73 74 74 77 79 80
17 4 5 17 12 9 3 22 15 14 42 65 59 51 52 52 42 37 35 35 36 36 36 36 36 37 37 36 38 39 41 45 48 50 52 55 58 61 65 67 68 70 71 71 70 70 70 71 76
7 9 10 11 10 8 16 44 32 51 45 42 36 32 34 35 34 34 36 36 38 39 38 37 35 36 37 38 40 40 43 47 50 53 57 57 60 64 67 69 70 70 71 71 69 68 68 69 70
4 4 9 10 5 14 7 29 43 38 17 13 11 18 17 22 25 35 36 37 38 40 39 37 36 37 39 41 41 44 48 52 54 56 57 62 66 69 70 70 71 70 69 69 65 65 68 68 61
4 5 11 14 4 2 13 43 16 8 6 7 10 9 11 3 4 12 23 31 37 36 35 36 37 39 39 40 42 45 52 55 56 57 59 62 65 66 67 68 67 66 66 62 58 56 60 60 60
4 2 6 11 18 3 17 17 9 5 6 7 5 5 4 1 6 11 19 27 29 31 34 38 39 39 38 40 42 48 52 55 58 62 65 64 67 67 67 64 64 60 54 51 49 50 53 62 60
7 5 3 12 10 6 12 9 14 9 14 8 13 12 7 6 10 13 14 17 26 32 36 37 37 37 38 41 47 52 54 58 60 62 65 66 65 64 61 60 57 50 45 46 48 48 50 54 60
10 1 5 2 3 6 12 7 17 8 14 14 21 23 15 12 12 11 14 19 23 29 32 32 32 34 37 43 48 51 55 57 61 65 68 69 67 62 58 55 51 44 46 47 49 51 52 52 53
7 1 3 6 4 7 7 7 13 7 9 7 9 23 21 20 17 17 15 17 21 22 24 27 30 34 39 42 48 52 55 60 66 69 71 69 67 64 61 55 48 46 48 48 51 52 53 55 53
9 10 8 12 10 9 3 4 23 12 10 9 12 19 30 27 24 21 20 20 21 24 27 28 32 34 37 44 49 53 58 62 65 68 68 68 68 68 66 57 52 51 50 50 51 53 55 55 53
7 6 9 8 6 11 4 12 12 9 11 20 20 24 27 33 30 28 22 24 26 26 26 28 30 33 41 46 49 55 58 63 64 64 65 67 68 69 66 62 58 55 53 53 54 56 56 53 55
6 9 2 12 3 6 6 16 23 8 13 18 26 25 31 34 35 30 27 26 25 27 27 25 28 39 42 47 51 54 58 62 63 64 65 68 68 69 66 64 60 56 55 55 56 58 60 57 52
6 5 7 7 6 11 12 13 12 17 15 14 15 28 36 39 43 38 29 26 26 24 25 27 37 36 43 47 51 58 62 63 65 67 70 70 71 69 68 63 58 57 56 57 58 62 62 57 47
6 5 7 6 6 8 5 15 15 18 12 15 21 26 37 42 44 39 30 26 25 27 26 37 31 37 43 47 54 60 63 66 68 70 71 72 72 70 67 62 58 57 59 57 59 61 61 54 44
3 9 7 8 12 5 6 19 11 19 11 15 35 53 50 39 35 36 30 26 25 31 33 27 29 37 43 50 56 60 63 68 71 73 72 71 71 67 64 60 59 59 59 58 59 59 57 45 44
Wind_Direction_500mb
311 340 107 111 64 65 82 249 158 220 258 315 232 220 119 61 127 216 164 167 180 205 251 335 313 341 331 337 328 321 319 318 315 312 309 308 307 307 308 308 308 309 310 324 334 334 334 331 326
312 91 100 86 84 78 262 257 203 229 143 122 83 36 34 85 143 176 161 183 202 224 276 271 292 319 314 320 315 315 315 313 310 310 312 311 312 312 311 312 314 314 323 334 335 335 333 331 329
304 77 62 89 103 163 185 216 200 241 154 32 119 57 111 169 181 190 181 197 216 229 251 261 307 306 307 304 307 309 310 311 311 312 312 315 313 313 313 326 331 320 332 336 335 334 333 332 330
230 71 65 82 171 199 211 205 173 121 209 281 123 55 274 198 170 181 201 201 214 221 247 273 283 295 297 303 309 311 312 312 312 315 319 315 316 311 309 305 315 316 314 323 328 339 335 310 301
39 74 64 74 275 271 253 234 181 173 110 52 348 232 244 215 210 205 212 214 223 234 246 264 280 292 300 305 309 313 316 316 316 317 315 312 310 309 308 307 306 304 303 304 302 305 300 299 307
55 69 66 160 245 279 296 321 207 86 64 106 304 183 254 236 216 218 215 224 234 243 251 266 284 298 306 314 314 317 313 314 315 317 321 320 319 316 314 312 308 308 309 306 306 304 303 304 304
106 71 114 123 193 288 221 171 69 104 177 246 187 237 260 257 219 220 224 228 237 243 256 274 291 301 305 316 317 315 315 318 321 322 321 322 321 317 314 313 312 309 307 307 307 306 306 305 305
88 93 89 227 197 258 29 93 96 185 241 224 227 224 246 267 235 222 226 231 243 249 260 277 292 299 308 319 318 314 316 315 312 313 315 317 314 313 310 307 305 305 306 306 305 304 303 303 302
73 67 151 223 154 294 10 69 277 237 248 232 231 243 262 264 235 225 231 235 242 252 265 280 290 300 310 312 309 308 307 306 307 309 311 309 307 304 304 302 301 303 302 303 304 304 304 304 303
65 97 193 69 311 282 291 254 255 258 234 252 252 253 256 256 243 240 244 243 253 261 272 282 292 299 305 307 304 302 301 300 301 303 303 303 303 302 301 302 301 300 299 301 302 303 303 303 302
19 111 108 198 195 258 269 280 239 229 262 244 241 272 257 249 244 245 251 255 267 269 274 282 288 297 303 302 300 299 298 300 300 302 302 302 299 297 298 299 301 304 305 304 303 302 303 304 304
83 99 176 208 243 262 247 279 263 230 249 264 275 270 260 250 246 247 253 257 264 272 275 280 290 297 300 302 301 301 300 298 299 300 300 299 300 301 300 301 303 304 305 305 306 307 306 305 304
75 198 47 231 263 275 283 266 265 267 268 269 267 264 262 261 256 250 254 253 260 269 275 279 286 295 299 297 297 298 301 304 304 304 304 305 304 303 304 305 306 308 307 307 307 309 309 307 306
74 135 246 260 314 305 300 281 328 278 317 288 262 259 260 263 262 254 250 256 265 270 269 273 287 294 295 294 296 302 305 306 307 308 308 308 307 306 305 306 306 307 307 308 309 309 309 309 309
104 333 338 19 349 318 323 282 232 273 281 277 284 274 261 264 254 254 261 265 271 266 265 279 288 294 296 296 299 301 303 306 308 309 309 308 308 307 307 308 307 306 307 308 309 311 312 312 312
42 49 10 32 1 360 26 277 296 288 302 302 302 282 263 268 257 255 257 262 261 257 265 274 285 294 294 295 297 300 304 308 310 312 309 308 306 307 308 309 309 311 312 314 315 315 314 314 314
17 304 329 320 41 316 135 278 272 280 310 303 296 275 265 274 256 252 256 256 254 256 264 274 285 291 295 297 295 297 302 310 314 313 312 311 311 312 312 313 315 316 317 319 320 318 319 318 316
311 336 317 259 334 354 264 264 279 286 291 288 299 294 278 263 254 253 255 255 250 252 260 271 282 290 291 293 294 301 311 313 314 315 315 314 314 317 320 320 321 322 321 323 322 321 319 318 320
278 271 274 265 1 326 255 288 291 298 246 258 313 341 310 268 256 251 249 246 244 249 260 271 279 284 288 294 299 301 308 315 317 318 320 322 323 324 324 322 321 321 321 321 322 321 323 323 326
192 292 296 283 265 333 326 294 278 271 248 269 317 342 360 5 244 234 233 237 241 249 260 270 277 283 290 294 300 310 315 317 318 320 319 320 322 322 322 321 321 320 319 320 321 324 323 325 328
330 279 323 258 318 249 316 297 335 255 266 258 293 303 341 255 233 231 223 224 234 249 260 269 275 282 288 295 304 308 311 314 319 321 323 325 324 323 323 322 319 318 317 320 325 328 327 322 325
300 155 258 283 8 281 16 278 310 321 300 246 243 243 238 220 213 217 215 225 239 254 266 272 277 281 289 299 308 314 319 321 323 324 324 324 323 324 323 321 319 318 321 324 327 326 324 325 324
261 292 249 258 105 5 357 63 269 357 299 268 234 234 232 235 232 222 224 246 259 264 270 271 276 284 295 306 314 317 318 321 323 325 324 326 325 325 327 324 319 316 321 323 323 324 327 326 319
307 226 98 69 101 22 273 84 281 249 224 292 264 238 237 239 235 228 245 262 269 273 273 276 284 292 305 313 316 318 324 327 328 326 325 326 328 329 330 325 318 317 319 320 321 322 325 325 320
24 39 344 357 7 234 269 11 247 264 258 243 274 272 245 244 243 246 261 276 279 275 273 281 291 303 312 318 319 324 327 328 326 326 328 330 330 330 329 324 320 316 316 316 318 320 323 322 319
19 109 142 250 277 281 32 234 251 224 269 272 267 267 243 236 237 244 264 275 277 277 280 291 299 311 320 319 322 325 327 326 327 328 329 330 330 329 327 323 317 312 313 314 316 318 321 320 314
345 40 136 97 75 22 272 288 294 281 291 272 266 265 256 249 243 248 264 279 281 282 286 295 308 315 320 322 323 324 325 327 329 330 332 332 330 327 323 319 315 310 312 314 316 316 319 318 316
100 163 32 15 338 296 295 279 240 301 296 321 308 283 284 268 247 248 265 283 285 283 286 298 309 323 323 320 324 326 330 332 333 334 334 332 328 326 323 321 316 311 312 315 315 316 317 317 315
33 17 35 127 141 216 299 269 217 242 241 275 293 315 320 294 257 250 264 281 276 281 288 301 320 322 318 323 327 331 332 334 335 334 333 331 328 327 325 324 319 315 315 316 314 314 316 319 315
127 189 169 124 272 223 158 262 215 234 247 246 295 304 312 301 258 247 266 272 269 275 289 306 322 320 321 325 330 332 336 336 335 334 333 331 329 329 328 325 320 318 317 318 316 316 319 326 325
Wind_Speed_850mb
11 7 4 3 8 9 3 3 2 4 4 2 3 2 3 9 1 4 14 21 18 14 6 10 9 15 16 23 28 29 30 33 35 37 39 40 41 42 42 44 44 41 37 30 26 26 26 27 28
9 3 8 5 9 6 5 6 6 6 6 15 7 5 6 3 2 2 17 23 19 12 6 13 13 20 26 27 33 35 38 40 41 43 42 42 42 40 40 39 39 36 33 29 28 28 26 27 28
2 4 4 8 6 8 7 6 8 2 22 3 1 5 3 4 6 7 16 21 18 15 14 14 20 25 29 33 35 39 43 43 42 40 40 39 38 38 37 31 28 35 31 29 29 30 29 30 30
2 5 12 8 5 2 5 6 5 9 9 6 3 5 1 6 8 14 16 19 21 19 16 18 24 27 32 36 40 43 40 38 37 38 37 37 36 34 30 39 38 30 28 27 28 25 25 21 19
3 7 8 8 1 3 5 4 9 5 5 4 2 4 6 10 11 14 20 22 25 22 21 23 28 32 36 39 40 38 36 35 37 35 36 37 38 40 40 39 37 38 38 36 37 37 40 43 41
4 5 8 4 4 5 7 5 3 2 4 2 3 3 7 12 18 17 26 29 31 28 25 24 27 32 37 39 40 36 36 36 38 40 42 43 42 40 39 37 37 38 36 36 35 36 39 40 43
10 7 4 5 4 4 5 2 2 4 3 6 4 3 9 17 19 22 29 33 34 33 28 26 30 35 35 39 37 36 38 41 44 46 45 43 40 38 37 35 35 36 36 38 39 42 45 47 50
7 9 5 3 7 6 4 2 2 3 6 6 7 11 12 12 19 25 33 32 36 35 31 30 33 35 37 39 39 41 41 43 43 43 42 40 38 37 36 36 38 39 42 44 46 49 52 55 57
4 9 4 6 8 5 8 1 2 5 9 15 18 28 27 22 22 33 37 39 40 37 33 32 33 35 40 41 39 39 40 41 41 40 39 37 37 37 38 39 42 45 48 51 53 57 60 62 64
10 7 7 3 1 5 6 4 5 5 12 18 34 42 39 32 31 37 41 38 37 34 33 34 36 37 41 41 40 38 39 39 39 40 40 40 41 42 44 46 48 50 53 55 58 61 65 67 71
7 5 3 3 5 5 8 9 9 9 13 41 31 30 33 35 35 38 41 40 35 35 37 37 38 41 43 42 40 39 39 38 39 41 43 44 45 47 49 52 54 57 61 63 66 68 70 73 75
8 2 2 4 4 6 8 11 12 28 48 21 22 28 32 36 39 40 39 37 38 37 37 38 39 44 43 40 41 40 39 39 41 43 46 48 50 53 56 58 59 62 65 69 72 75 79 81 82
6 3 1 6 8 14 20 22 21 51 58 47 42 38 38 37 39 40 35 37 39 39 38 39 42 44 42 43 42 41 40 40 41 44 47 51 55 59 61 62 64 67 70 74 79 81 83 83 82
4 2 5 6 7 14 10 12 6 17 11 14 33 46 42 41 39 38 38 37 34 33 37 38 41 41 43 42 41 40 40 40 43 47 50 52 55 58 61 64 67 70 74 77 79 80 81 81 81
2 5 9 2 10 8 19 15 19 40 30 24 27 34 34 36 38 43 35 33 30 31 34 37 38 41 41 40 39 39 39 41 44 47 50 52 56 58 62 66 68 71 73 75 76 77 79 82 83
10 9 10 4 20 6 12 21 7 4 10 28 37 33 36 35 41 39 34 32 33 34 35 37 37 38 39 38 38 37 38 42 45 49 51 54 56 60 63 66 69 69 71 73 74 74 77 79 80
17 4 5 17 12 9 3 22 15 14 42 65 59 51 52 52 42 37 35 35 36 36 36 36 36 37 37 36 38 39 41 45 48 50 52 55 58 61 65 67 68 70 71 71 70 70 70 71 76
7 9 10 11 10 8 16 44 32 51 45 42 36 32 34 35 34 34 36 36 38 39 38 37 35 36 37 38 40 40 43 47 50 53 57 57 60 64 67 69 70 70 71 71 69 68 68 69 70
4 4 9 10 5 14 7 29 43 38 17 13 11 18 17 22 25 35 36 37 38 40 39 37 36 37 39 41 41 44 48 52 54 56 57 62 66 69 70 70 71 70 69 69 65 65 68 68 61
4 5 11 14 4 2 13 43 16 8 6 7 10 9 11 3 4 12 23 31 37 36 35 36 37 39 39 40 42 45 52 55 56 57 59 62 65 66 67 68 67 66 66 62 58 56 60 60 60
4 2 6 11 18 3 17 17 9 5 6 7 5 5 4 1 6 11 19 27 29 31 34 38 39 39 38 40 42 48 52 55 58 62 65 64 67 67 67 64 64 60 54 51 49 50 53 62 60
7 5 3 12 10 6 12 9 14 9 14 8 13 12 7 6 10 13 14 17 26 32 36 37 37 37 38 41 47 52 54 58 60 62 65 66 65 64 61 60 57 50 45 46 48 48 50 54 60
10 1 5 2 3 6 12 7 17 8 14 14 21 23 15 12 12 11 14 19 23 29 32 32 32 34 37 43 48 51 55 57 61 65 68 69 67 62 58 55 51 44 46 47 49 51 52 52 53
7 1 3 6 4 7 7 7 13 7 9 7 9 23 21 20 17 17 15 17 21 22 24 27 30 34 39 42 48 52 55 60 66 69 71 69 67 64 61 55 48 46 48 48 51 52 53 55 53
9 10 8 12 10 9 3 4 23 12 10 9 12 19 30 27 24 21 20 20 21 24 27 28 32 34 37 44 49 53 58 62 65 68 68 68 68 68 66 57 52 51 50 50 51 53 55 55 53
7 6 9 8 6 11 4 12 12 9 11 20 20 24 27 33 30 28 22 24 26 26 26 28 30 33 41 46 49 55 58 63 64 64 65 67 68 69 66 62 58 55 53 53 54 56 56 53 55
6 9 2 12 3 6 6 16 23 8 13 18 26 25 31 34 35 30 27 26 25 27 27 25 28 39 42 47 51 54 58 62 63 64 65 68 68 69 66 64 60 56 55 55 56 58 60 57 52
6 5 7 7 6 11 12 13 12 17 15 14 15 28 36 39 43 38 29 26 26 24 25 27 37 36 43 47 51 58 62 63 65 67 70 70 71 69 68 63 58 57 56 57 58 62 62 57 47
6 5 7 6 6 8 5 15 15 18 12 15 21 26 37 42 44 39 30 26 25 27 26 37 31 37 43 47 54 60 63 66 68 70 71 72 72 70 67 62 58 57 59 57 59 61 61 54 44
3 9 7 8 12 5 6 19 11 19 11 15 35 53 50 39 35 36 30 26 25 31 33 27 29 37 43 50 56 60 63 68 71 73 72 71 71 67 64 60 59 59 59 58 59 59 57 45 44
Wind_Direction_850mb
311 340 107 111 64 65 82 249 158 220 258 315 232 220 119 61 127 216 164 167 180 205 251 335 313 341 331 337 328 321 319 318 315 312 309 308 307 307 308 308 308 309 310 324 334 334 334 331 326
312 91 100 86 84 78 262 257 203 229 143 122 83 36 34 85 143 176 161 183 202 224 276 271 292 319 314 320 315 315 315 313 310 310 312 311 312 312 311 312 314 314 323 334 335 335 333 331 329
304 77 62 89 103 163 185 216 200 241 154 32 119 57 111 169 181 190 181 197 216 229 251 261 307 306 307 304 307 309 310 311 311 312 312 315 313 313 313 326 331 320 332 336 335 334 333 332 330
230 71 65 82 171 199 211 205 173 121 209 281 123 55 274 198 170 181 201 201 214 221 247 273 283 295 297 303 309 311 312 312 312 315 319 315 316 311 309 305 315 316 314 323 328 339 335 310 301
39 74 64 74 275 271 253 234 181 173 110 52 348 232 244 215 210 205 212 214 223 234 246 264 280 292 300 305 309 313 316 316 316 317 315 312 310 309 308 307 306 304 303 304 302 305 300 299 307
55 69 66 160 245 279 296 321 207 86 64 106 304 183 254 236 216 218 215 224 234 243 251 266 284 298 306 314 314 317 313 314 315 317 321 320 319 316 314 312 308 308 309 306 306 304 303 304 304
106 71 114 123 193 288 221 171 69 104 177 246 187 237 260 257 219 220 224 228 237 243 256 274 291 301 305 316 317 315 315 318 321 322 321 322 321 317 314 313 312 309 307 307 307 306 306 305 305
88 93 89 227 197 258 29 93 96 185 241 224 227 224 246 267 235 222 226 231 243 249 260 277 292 299 308 319 318 314 316 315 312 313 315 317 314 313 310 307 305 305 306 306 305 304 303 303 302
73 67 151 223 154 294 10 69 277 237 248 232 231 243 262 264 235 225 231 235 242 252 265 280 290 300 310 312 309 308 307 306 307 309 311 309 307 304 304 302 301 303 302 303 304 304 304 304 303
65 97 193 69 311 282 291 254 255 258 234 252 252 253 256 256 243 240 244 243 253 261 272 282 292 299 305 307 304 302 301 300 301 303 303 303 303 302 301 302 301 300 299 301 302 303 303 303 302
19 111 108 198 195 258 269 280 239 229 262 244 241 272 257 249 244 245 251 255 267 269 274 282 288 297 303 302 300 299 298 300 300 302 302 302 299 297 298 299 301 304 305 304 303 302 303 304 304
83 99 176 208 243 262 247 279 263 230 249 264 275 270 260 250 246 247 253 257 264 272 275 280 290 297 300 302 301 301 300 298 299 300 300 299 300 301 300 301 303 304 305 305 306 307 306 305 304
75 198 47 231 263 275 283 266 265 267 268 269 267 264 262 261 256 250 254 253 260 269 275 279 286 295 299 297 297 298 301 304 304 304 304 305 304 303 304 305 306 308 307 307 307 309 309 307 306
74 135 246 260 314 305 300 281 328 278 317 288 262 259 260 263 262 254 250 256 265 270 269 273 287 294 295 294 296 302 305 306 307 308 308 308 307 306 305 306 306 307 307 308 309 309 309 309 309
104 333 338 19 349 318 323 282 232 273 281 277 284 274 261 264 254 254 261 265 271 266 265 279 288 294 296 296 299 301 303 306 308 309 309 308 308 307 307 308 307 306 307 308 309 311 312 312 312
42 49 10 32 1 360 26 277 296 288 302 302 302 282 263 268 257 255 257 262 261 257 265 274 285 294 294 295 297 300 304 308 310 312 309 308 306 307 308 309 309 311 312 314 315 315 314 314 314
17 304 329 320 41 316 135 278 272 280 310 303 296 275 265 274 256 252 256 256 254 256 264 274 285 291 295 297 295 297 302 310 314 313 312 311 311 312 312 313 315 316 317 319 320 318 319 318 316
311 336 317 259 334 354 264 264 279 286 291 288 299 294 278 263 254 253 255 255 250 252 260 271 282 290 291 293 294 301 311 313 314 315 315 314 314 317 320 320 321 322 321 323 322 321 319 318 320
278 271 274 265 1 326 255 288 291 298 246 258 313 341 310 268 256 251 249 246 244 249 260 271 279 284 288 294 299 301 308 315 317 318 320 322 323 324 324 322 321 321 321 321 322 321 323 323 326
192 292 296 283 265 333 326 294 278 271 248 269 317 342 360 5 244 234 233 237 241 249 260 270 277 283 290 294 300 310 315 317 318 320 319 320 322 322 322 321 321 320 319 320 321 324 323 325 328
330 279 323 258 318 249 316 297 335 255 266 258 293 303 341 255 233 231 223 224 234 249 260 269 275 282 288 295 304 308 311 314 319 321 323 325 324 323 323 322 319 318 317 320 325 328 327 322 325
300 155 258 283 8 281 16 278 310 321 300 246 243 243 238 220 213 217 215 225 239 254 266 272 277 281 289 299 308 314 319 321 323 324 324 324 323 324 323 321 319 318 321 324 327 326 324 325 324
261 292 249 258 105 5 357 63 269 357 299 268 234 234 232 235 232 222 224 246 259 264 270 271 276 284 295 306 314 317 318 321 323 325 324 326 325 325 327 324 319 316 321 323 323 324 327 326 319
307 226 98 69 101 22 273 84 281 249 224 292 264 238 237 239 235 228 245 262 269 273 273 276 284 292 305 313 316 318 324 327 328 326 325 326 328 329 330 325 318 317 319 320 321 322 325 325 320
24 39 344 357 7 234 269 11 247 264 258 243 274 272 245 244 243 246 261 276 279 275 273 281 291 303 312 318 319 324 327 328 326 326 328 330 330 330 329 324 320 316 316 316 318 320 323 322 319
19 109 142 250 277 281 32 234 251 224 269 272 267 267 243 236 237 244 264 275 277 277 280 291 299 311 320 319 322 325 327 326 327 328 329 330 330 329 327 323 317 312 313 314 316 318 321 320 314
345 40 136 97 75 22 272 288 294 281 291 272 266 265 256 249 243 248 264 279 281 282 286 295 308 315 320 322 323 324 325 327 329 330 332 332 330 327 323 319 315 310 312 314 316 316 319 318 316
100 163 32 15 338 296 295 279 240 301 296 321 308 283 284 268 247 248 265 283 285 283 286 298 309 323 323 320 324 326 330 332 333 334 334 332 328 326 323 321 316 311 312 315 315 316 317 317 315
33 17 35 127 141 216 299 269 217 242 241 275 293 315 320 294 257 250 264 281 276 281 288 301 320 322 318 323 327 331 332 334 335 334 333 331 328 327 325 324 319 315 315 316 314 314 316 319 315
127 189 169 124 272 223 158 262 215 234 247 246 295 304 312 301 258 247 266 272 269 275 289 306 322 320 321 325 330 332 336 336 335 334 333 331 329 329 328 325 320 318 317 318 316 316 319 326 325